www.pogodaiklimat.ru

Погода и климат >> Архив погоды >> Бельгия >> Ernage


ПОГОДА в Ernage

  • Прогноз погоды в Ernage
  • Монитор погоды в Ernage
  • Климат города

АРХИВ ПОГОДЫ в Ernage

Время (UTC), дата Ветер
(напр.,м/с)
 
Видим.   Явления Облачность Т
(С)
Тd
(С)
f
(%)
Тe
(С)
Тes
(С)
Комфортность P
(гПа)
Po
(гПа)
Тmin
(С)
Tmax
(С)
R
(мм)
R24
(мм)
S
(см)
10 11.10 Ю 5 н/о н/о +19.6 +13.2 67 +21 +21 комфорт 1011.3 992.6 101
11 11.10 Ю 6 н/о н/о +20.9 +13.0 61 +23 +23 комфорт 1010.9 992.3 144
12 11.10 Ю 6 н/о н/о +22.0 +13.0 57 +25 +25 комфорт 1010.5 992.0 153
13 11.10 Ю 6 н/о н/о +22.6 +12.3 52 +25 +25 комфорт 1010.3 991.8 148
14 11.10 ЮВ 7 н/о н/о +22.3 +13.4 57 +25 +25 комфорт 1010.2 991.8 127
15 11.10 Ю 4 н/о н/о +23.1 +13.7 55 +26 +26 жарко 1010.3 991.9 94
16 11.10 Ю 6 н/о н/о +22.1 +13.0 56 +25 +25 комфорт 1010.6 992.1 52
17 11.10 ЮВ 4 н/о н/о +19.8 +13.1 65 +22 +22 комфорт 1011.3 992.6 10
18 11.10 ЮВ 3 н/о н/о +17.7 +13.0 74 +18 +18 1011.7 993.0 +23.1
19 11.10 ЮВ 3 н/о н/о +16.4 +12.6 78 +16 +16 1011.8 993.0
20 11.10 ЮВ 3 н/о н/о +17.4 +13.0 75 +17 +17 1011.9 993.1
21 11.10 ЮВ 4 н/о н/о +17.7 +12.3 71 +17 +17 1012.1 993.3
22 11.10 ЮВ 5 н/о н/о +17.7 +12.2 70 +17 +17 1012.6 993.8
23 11.10 Ю 4 н/о н/о +15.7 +14.8 94 +15 +15 1014.4 995.4
00 12.10 Ю 4 н/о н/о +16.0 +15.1 94 +15 +15 1014.4 995.5 87
01 12.10 Ю 3 н/о н/о +15.5 +14.5 94 +15 +15 1014.8 995.8
02 12.10 Ю 3 н/о н/о +15.3 +13.8 91 +15 +15 1015.1 996.1
03 12.10 Ю 4 н/о н/о +14.8 +13.6 93 +14 +14 1015.8 996.8
04 12.10 Ю 3 н/о н/о +14.5 +13.4 93 +14 +14 1016.5 997.4
05 12.10 Ю 4 н/о н/о +15.3 +13.8 91 +14 +14 1016.7 997.7
06 12.10 Ю 3 н/о н/о +14.7 +13.5 93 +14 +14 1017.6 998.5 +14.2
07 12.10 ЮВ 3 н/о н/о +14.8 +13.6 93 +14 +14 1018.4 999.3 4
08 12.10 ЮВ 4 н/о н/о +16.3 +14.4 89 +16 +16 1018.7 999.7 37
09 12.10 Ю 5 н/о н/о +18.4 +15.1 81 +19 +19 1018.9 1000.1 87
10 12.10 Ю 6 н/о н/о +19.3 +15.2 77 +20 +20 1018.7 999.9 105
11 12.10 Ю 5 н/о н/о +20.4 +15.3 73 +23 +23 комфорт 1018.8 1000.1 113
12 12.10 Ю 5 н/о н/о +21.1 +15.4 70 +24 +24 комфорт 1018.6 999.9 112
13 12.10 Ю 5 н/о н/о +21.7 +15.8 69 +25 +25 комфорт 1018.5 999.9 116
14 12.10 Ю 7 н/о н/о +22.1 +15.5 66 +26 +26 душно 1018.7 1000.1 111
15 12.10 Ю 6 н/о н/о +22.1 +15.4 66 +26 +26 душно 1018.6 1000.0 73
16 12.10 Ю 5 н/о н/о +21.7 +15.3 67 +25 +25 комфорт 1018.8 1000.2 48
17 12.10 Ю 3 н/о н/о +20.3 +15.1 72 +23 +23 комфорт 1018.8 1000.1 12
18 12.10 ЮВ 4 н/о н/о +19.1 +14.4 74 +20 +20 1019.6 1000.7 +22.4
19 12.10 Ю 4 н/о н/о +19.9 +13.7 67 +22 +22 комфорт 1019.7 1000.9
20 12.10 Ю 3 н/о н/о +18.6 +13.7 73 +19 +19 1020.3 1001.4
21 12.10 ЮВ 3 н/о н/о +17.5 +13.6 78 +18 +18 1020.4 1001.4
22 12.10 ЮВ 4 н/о н/о +17.4 +13.5 78 +17 +17 1020.1 1001.1
23 12.10 ЮВ 4 н/о н/о +17.9 +13.6 76 +18 +18 1019.7 1000.8
00 13.10 Ю 3 н/о н/о +16.9 +13.2 79 +17 +17 1019.9 1000.9 82
01 13.10 ЮВ 4 н/о н/о +16.8 +13.7 82 +16 +16 1019.9 1000.9
02 13.10 Ю 3 н/о н/о +16.9 +13.8 82 +17 +17 1020.2 1001.3
03 13.10 ЮВ 4 н/о н/о +16.7 +13.7 82 +16 +16 1020.3 1001.3
04 13.10 ЮВ 4 н/о н/о +16.3 +13.7 85 +16 +16 1019.9 1000.9
05 13.10 ЮВ 4 н/о н/о +16.0 +13.5 85 +15 +15 1019.4 1000.4
06 13.10 ЮВ 4 н/о н/о +16.4 +13.3 82 +16 +16 1019.3 1000.3 +15.9
07 13.10 ЮВ 5 н/о н/о +16.5 +13.5 82 +16 +16 1019.3 1000.3 6
08 13.10 ЮВ 5 н/о н/о +17.8 +13.8 77 +17 +17 1019.3 1000.4 37
09 13.10 Ю 5 н/о н/о +19.4 +14.2 72 +21 +21 комфорт 1019.2 1000.4 74
10 13.10 Ю 5 н/о н/о +20.7 +14.7 68 +23 +23 комфорт 1018.5 999.7 110
11 13.10 Ю 6 н/о н/о +22.2 +15.0 64 +26 +26 душно 1018.0 999.5 135
12 13.10 Ю 6 н/о н/о +23.5 +15.1 59 +26 +26 жарко 1017.0 998.5 147
13 13.10 Ю 6 н/о н/о +24.0 +14.8 56 +27 +27 жарко 1016.0 997.5 142
14 13.10 ЮВ 5 н/о н/о +23.9 +15.0 57 +27 +27 жарко 1015.5 997.1 119
15 13.10 Ю 4 н/о н/о +23.7 +14.3 56 +26 +26 жарко 1014.9 996.4 82
16 13.10 ЮВ 4 н/о н/о +22.7 +14.0 58 +26 +26 жарко 1014.2 995.7 50
17 13.10 ЮВ 2 н/о н/о +20.9 +13.8 64 +24 +24 комфорт 1014.1 995.4 5
18 13.10 ЮВ 2 н/о н/о +18.3 +13.5 74 +19 +19 1014.1 995.3 +24.2
19 13.10 ЮВ 3 н/о н/о +17.8 +13.1 74 +18 +18 1013.5 994.8
20 13.10 ЮВ 2 н/о н/о +18.0 +12.4 70 +19 +19 1014.0 995.1
21 13.10 ЮВ 3 н/о н/о +17.4 +12.1 71 +17 +17 1013.9 995.0
22 13.10 ЮВ 3 н/о н/о +17.4 +12.0 71 +17 +17 1013.5 994.6
23 13.10 ЮВ 3 н/о н/о +16.9 +11.7 71 +17 +17 1013.1 994.2
00 14.10 ЮВ 4 н/о н/о +17.6 +11.9 69 +17 +17 1012.4 993.6 91
01 14.10 ЮВ 4 н/о н/о +16.6 +11.6 72 +16 +16 1012.0 993.1
02 14.10 ЮВ 3 н/о н/о +16.0 +11.4 74 +16 +16 1011.1 992.2
03 14.10 ЮВ 5 н/о н/о +15.7 +11.3 75 +15 +15 1010.3 991.4
04 14.10 ЮВ 4 н/о н/о +15.4 +11.0 75 +14 +14 1010.2 991.3
05 14.10 ЮВ 4 н/о н/о +15.3 +10.9 75 +14 +14 1009.7 990.8
06 14.10 Ю 5 н/о н/о +15.6 +10.7 73 +14 +14 1009.5 990.6 +15.3
07 14.10 ЮВ 5 н/о н/о +15.8 +11.1 74 +15 +15 1009.4 990.6 6
08 14.10 Ю 7 н/о н/о +16.7 +11.2 70 +15 +15 1009.6 990.8 29
09 14.10 Ю 6 н/о н/о +18.4 +11.5 64 +18 +18 1009.2 990.4 64
10 14.10 Ю 6 н/о н/о +20.4 +11.0 55 +22 +22 комфорт 1008.5 990.0 112
11 14.10 Ю 7 н/о н/о +21.4 +9.6 47 +23 +23 комфорт 1008.2 989.7 132
12 14.10 Ю 8 н/о н/о +22.1 +9.3 44 +24 +24 комфорт 1007.8 989.3 146
13 14.10 Ю 6 н/о н/о +22.9 +9.7 43 +25 +25 комфорт 1007.1 988.7 140
14 14.10 Ю 6 н/о н/о +23.5 +9.2 40 +24 +24 комфорт 1007.3 988.9 129
15 14.10 Ю 6 н/о н/о +23.5 +9.8 42 +25 +25 комфорт 1007.0 988.6 91
16 14.10 Ю 3 н/о н/о +22.6 +10.3 46 +24 +24 комфорт 1007.2 988.8 39
17 14.10 Ю 2 н/о н/о +20.1 +10.2 53 +22 +22 комфорт 1007.7 989.1 10
18 14.10 ЮВ 4 н/о н/о +18.0 +10.7 62 +18 +18 1007.9 989.2 +23.6
19 14.10 ЮВ 3 н/о н/о +18.1 +10.5 61 +18 +18 1008.1 989.4
20 14.10 ЮВ 3 н/о н/о +17.6 +10.2 62 +18 +18 1008.3 989.6
21 14.10 ЮВ 5 н/о н/о +17.8 +10.0 60 +17 +17 1008.6 989.9
22 14.10 ЮВ 3 н/о н/о +16.8 +9.6 62 +17 +17 1009.1 990.2
23 14.10 ЮВ 4 н/о н/о +16.5 +9.3 62 +16 +16 1009.2 990.3
00 15.10 ЮВ 4 н/о н/о +16.7 +9.2 61 +16 +16 1009.5 990.7 90
01 15.10 ЮВ 4 н/о н/о +16.8 +8.6 58 +16 +16 1009.6 990.8
02 15.10 Ю 4 н/о н/о +16.6 +8.1 57 +16 +16 1009.4 990.6
03 15.10 ЮВ 4 н/о н/о +15.5 +7.9 61 +15 +15 1009.8 990.8
04 15.10 ЮВ 3 н/о н/о +14.6 +8.4 66 +14 +14 1009.9 990.9
05 15.10 Ю 4 н/о н/о +16.8 +8.8 59 +16 +16 1010.0 991.2
06 15.10 Ю 4 н/о н/о +17.1 +9.2 60 +17 +17 1010.6 991.8 +14.6
07 15.10 Ю 3 н/о н/о +17.0 +9.7 62 +17 +17 1011.2 992.4 1
08 15.10 ЮВ 4 н/о н/о +17.7 +9.7 59 +17 +17 1011.8 993.0 30
09 15.10 Ю 4 н/о н/о +18.4 +10.3 59 +19 +19 1012.1 993.3 36
10 15.10 Ю 4 н/о н/о +19.0 +10.4 57 +20 +20 1012.5 993.8 49
11 15.10 Ю 4 н/о н/о +20.9 +9.7 49 +23 +23 комфорт 1012.8 994.2 126
12 15.10 Ю 4 н/о н/о +22.4 +10.8 48 +24 +24 комфорт 1012.5 993.9 125
13 15.10 Ю 3 н/о н/о +22.5 +10.7 47 +24 +24 комфорт 1012.5 993.9 130
14 15.10 Ю 4 н/о н/о +23.4 +10.0 43 +25 +25 комфорт 1012.4 993.9 119
15 15.10 Ю 4 н/о н/о +23.0 +8.7 40 +24 +24 комфорт 1012.8 994.3 89
16 15.10 Ю 4 н/о н/о +22.1 +8.1 41 +23 +23 комфорт 1013.2 994.6 43
17 15.10 Ю 2 н/о н/о +19.0 +8.0 49 +20 +20 1014.2 995.4 9
18 15.10 ЮВ 2 н/о н/о +15.4 +8.6 64 +15 +15 1014.8 995.7 +23.4
19 15.10 ЮВ 1 н/о н/о +13.1 +8.3 73 +13 +13 1015.3 996.1
20 15.10 В 1 н/о н/о +12.2 +8.2 77 +12 +12 1015.6 996.3
21 15.10 В 1 н/о н/о +11.2 +8.6 84 +11 +11 1016.1 996.8
22 15.10 В 1 н/о н/о +9.8 +8.0 89 +9 +9 1016.3 996.9
23 15.10 ЮВ 1 н/о н/о +10.4 +9.1 92 +10 +10 1016.4 997.1
00 16.10 ЮВ 2 н/о н/о +10.8 +8.8 87 +9 +9 1016.8 997.4 76
01 16.10 Ю 1 н/о н/о +10.7 +8.6 87 +10 +10 1017.3 997.9
02 16.10 ЮВ 2 н/о н/о +9.0 +7.5 90 +7 +7 1017.5 998.0
03 16.10 ЮВ 1 н/о н/о +9.7 +8.6 93 +9 +9 1017.6 998.1
04 16.10 Ю 1 н/о н/о +10.0 +8.1 88 +9 +9 1018.0 998.5
05 16.10 ЮВ 2 н/о н/о +9.0 +7.8 92 +7 +7 1018.1 998.6
06 16.10 В 1 н/о н/о +9.2 +8.0 92 +8 +8 1018.4 998.9 +8.8
07 16.10 ЮВ 2 н/о н/о +10.0 +9.1 94 +8 +8 1018.8 999.3 6
08 16.10 В 1
{3}
н/о н/о +14.2 +12.5 90 +14 +14 1019.0 999.8
09 16.10 В 1
{3}
н/о н/о +17.8 +12.2 70 +19 +19 1018.9 999.9
10 16.10 ЮВ 2 н/о н/о +20.0 +12.3 61 +22 +22 комфорт 1018.7 999.9 98
11 16.10 ЮВ 1 н/о н/о +22.2 +11.2 50 +24 +24 комфорт 1018.6 999.9 128
12 16.10 В 4 н/о н/о +23.2 +10.0 43 +25 +25 комфорт 1018.2 999.6 152
13 16.10 ЮВ 3
{5}
н/о н/о +24.1 +11.5 45 +26 +26 жарко 1017.7 999.2
14 16.10 Ю 4 н/о н/о +24.4 +9.4 39 +25 +25 комфорт 1017.8 999.3 129
15 16.10 Ю 3
{7}
н/о н/о +23.8 +8.9 39 +25 +25 комфорт 1017.8 999.2
16 16.10 Ю 1 н/о н/о +22.0 +10.1 47 +24 +24 комфорт 1017.7 999.1 33
17 16.10 ЮЗ 2
{3}
н/о н/о +20.5 +10.4 52 +23 +23 комфорт 1018.1 999.3
18 16.10 ЮЗ 2
{7}
н/о н/о +16.9 +10.5 66 +17 +17 1018.8 999.8 +24.7
19 16.10 ЮВ 1 н/о н/о +14.7 +9.5 71 +15 +15 1019.2 1000.1
20 16.10 В 2 н/о н/о +12.4 +9.1 80 +12 +12 1019.5 1000.2
21 16.10 ЮВ 1
{2}
н/о н/о +12.3 +10.4 88 +12 +12 1019.3 1000.0
22 16.10 З 2 н/о н/о +11.2 +9.6 90 +10 +10 1019.7 1000.3
23 16.10 ЮВ 2 н/о н/о +10.2 +8.8 91 +9 +9 1019.1 999.7
00 17.10 Ю 2 н/о н/о +11.4 +9.9 90 +10 +10 1019.1 999.7 89
01 17.10 ЮВ 2
{4}
н/о н/о +11.4 +9.3 87 +10 +10 1019.1 999.7
02 17.10 ЮЗ 2
{8}
н/о н/о +11.6 +9.7 88 +10 +10 1019.3 999.9
03 17.10 Ю 1
{8}
н/о н/о +10.6 +8.8 89 +10 +10 1019.2 999.8
04 17.10 Ю 1 н/о н/о +9.3 +8.2 93 +9 +9 1019.5 999.9
05 17.10 Ю 1
{2}
н/о н/о +8.4 +7.7 95 +8 +8 1019.5 999.9
06 17.10 Ю 1
{8}
н/о н/о +8.4 +8.0 97 +7 +7 1019.8 1000.2 +8.0
07 17.10 ЮВ 1 н/о н/о +8.1 +7.9 99 +7 +7 1020.0 1000.4 3
08 17.10 З 2 н/о н/о +11.8 +11.8 100 +11 +11 1020.0 1000.7 30
09 17.10 СЗ 2
{3}
н/о н/о +13.8 +12.4 91 +13 +13 1020.1 1000.9
10 17.10 СЗ 1 н/о н/о +15.4 +13.2 87 +16 +16 1020.3 1001.3 93
11 17.10 С 2 н/о н/о +17.1 +13.6 80 +17 +17 1019.9 1000.9 113
12 17.10 С 2 н/о н/о +18.1 +13.2 73 +19 +19 1019.6 1000.8 134
13 17.10 С 1 н/о н/о +19.0 +13.0 68 +21 +21 комфорт 1019.3 1000.4 129
14 17.10 С 1 н/о н/о +19.4 +13.0 66 +22 +22 комфорт 1019.1 1000.3 110
15 17.10 СЗ 2 н/о н/о +19.4 +13.8 70 +21 +21 комфорт 1019.1 1000.3 80
16 17.10 н/о н/о +18.3 +13.3 73 1019.2 1000.3 41
17 17.10 С 2 н/о н/о +15.2 +12.0 81 +15 +15 1019.7 1000.5 9
18 17.10 С 3 н/о н/о +12.9 +11.1 89 +11 +11 1020.4 1001.1 +19.6
19 17.10 н/о н/о +12.6 +11.6 94 1021.0 1001.7
20 17.10 С 4 н/о н/о +12.2 +11.5 95 +10 +10 1021.5 1002.1
21 17.10 н/о н/о +12.7 +12.0 96 1021.9 1002.6
22 17.10 н/о н/о +12.4 +11.4 94 1022.3 1003.0
23 17.10 С 3 н/о н/о +12.0 +11.3 95 +10 +10 1022.6 1003.2
00 18.10 С 3 н/о н/о +12.7 +11.8 94 +11 +11 1022.5 1003.2 80
01 18.10 С 4 н/о н/о +12.9 +11.3 90 +11 +11 1022.4 1003.1
02 18.10 С 4 н/о н/о +12.3 +11.4 94 +10 +10 1022.5 1003.2
03 18.10 н/о н/о +12.6 +11.3 92 1022.5 1003.2
04 18.10 н/о н/о +12.5 +11.2 92 1022.8 1003.4
05 18.10 С 3 н/о н/о +12.3 +11.5 95 +11 +11 1023.0 1003.7
06 18.10 С 3 н/о н/о +12.0 +11.4 96 +10 +10 1023.4 1004.0 +11.8
07 18.10 СВ 2 н/о н/о +10.7 +10.4 98 +9 +9 1023.6 1004.1 2
08 18.10 С 4 н/о н/о +11.5 +11.4 99 +9 +9 1024.3 1004.9 15
09 18.10 СВ 4 н/о н/о +12.4 +12.3 99 +10 +10 1024.6 1005.2 29
10 18.10 СВ 5
{8}
н/о н/о +13.3 +11.2 87 +11 +11 1024.4 1005.1

 

Местоположение метеостанции Ernage (Бельгия): широта 50.67 долгота 4.68 высота над уровнем моря 158 м.

В архиве по умолчанию представлена погода в Ernage за последнюю неделю. Архивные данные за месяц целиком и за предыдущие месяцы, начиная с января 2011 года, Вы можете получить, выбрав интересующий диапазон дат из раскрывающегося списка и нажав кнопку "Ввод!".


*Определитесь, кто Вы:
робот инопланетянин человек

Внимание! Время в таблицах - всемирное. Для получения местного времени необходимо прибавить поправку, которая в Ernage равна 1 ч.

Смотрите также архив погоды в соседних городах и на ближайших метеорологических станциях:

Погода в Beauvechain (Бельгия) (11 км)
Погода в Uccle (Бельгия) (27 км)
Погода в Charleroi (Бельгия) (28 км)
Погода в Bruxelles (Бельгия) (28 км)
Погода в Schaffen (Бельгия) (46 км)
Погода в Florennes (Бельгия) (49 км)
Погода в Bierset (Бельгия) (54 км)
Погода в Antwerpen (Бельгия) (61 км)
Погода в Diepenbeek (Бельгия) (61 км)
Погода в Chievres (Бельгия) (61 км)

Пояснения к столбцам:

Ветер - указаны скорость ветра в м/с - средняя за 10 мин, порывы в срок и между сроками (в фигурных скобках) и направление, откуда дует ветер: С - северный, СВ - северо-восточный, В - восточный, ЮВ - юго-восточный, Ю - южный, ЮЗ - юго-западный, З - западный, СЗ - северо-западный.
Видимость - горизонтальная дальность видимости в метрах или километрах. При видимости от 1 до 10 км при отсутствии осадков обычно наблюдается дымка, при ухудшении видимости до 1 км и менее - туман. В сухую погоду видимость может ухудшаться дымом, пылью или мглою.
Явления - указаны атмосферные явления, наблюдавшиеся в срок или в последний час перед сроком; фигурными скобками обозначены явления, наблюдавшиеся между сроками (за 1-3 часа до срока); квадратными скобками обозначены град или гололедные отложения с указанием их диаметра в мм.
Облачность - указаны через наклонную черту общая и нижняя облачность в баллах и высота нижней границы облаков в метрах; квадратными скобками обозначены формы облаков: Ci - перистые, Cs - перисто-слоистые, Cc - перисто-кучевые, Ac - высококучевые, As - высокослоистые, Sc - слоисто-кучевые, Ns - слоисто-дождевые, Cu - кучевые, Cb - кучево-дождевые. Подробнее классификацию облаков см. в Атласе облаков (PDF).
T - Температура воздуха - температура, измеренная на высоте 2 м над землей.
Td - Температура точки росы - температура, при понижении до которой содержащийся в воздухе водяной пар достигнет насыщения.
f - Относительная влажность воздуха - влажноcть воздуха, измеренная на высоте 2 м над землей.
Te - Эффективная температура - температура, которую ощущает одетый по сезону человек в тени. Характеристика душности погоды. При расчете учитывается влияние влажности воздуха и скорости ветра на теплоощущения человека.
Tes - Эффективная температура на солнце - температура, которую ощущает человек, с поправкой на солнечный нагрев. Характеристика знойности погоды. Зависит от высоты солнца над горизонтом, облачности и скорости ветра. Ночью, в пасмурную погоду, а также при ветре 12 м/с и более поправка равна нулю.
P - Атмосферное давление - приведенное к уровню моря атмосферное давление.
Po - Атмосферное давление - измеренное на уровне метеостанции атмосферное давление.
Tmin - Минимальная температура - минимум температуры воздуха на высоте 2 м над землей.
Tmax - Максимальная температура - максимум температуры воздуха на высоте 2 м над землей.
R - Количество осадков - Количество выпавших осадков за период времени, мм. При наведении курсора мыши на число - период времени, за который выпало указанное количество осадков.
R24 - Количество осадков - Количество выпавших осадков за 24 часа, мм.
S - Снежный покров - Высота снежного покрова, см. При наведении курсора мыши на число - состояние снежного покрова и степень покрытия местности в баллах.